QPF
0.03 0.02 0.02 0.05 0.09 0.08 0.05 0.05 0.06 0.04 0.02 0.02 0.02 0.03 0.03 0.03 0.03 0.03 0.02 0.03 0.04 0.06 0.08 0.06 0.05 0.04 0.03 0.03 0.02 0.02 0.01 0.01 0.01 0.01 0.01 0.01 0.01 0.02 0.02 0.03 0.03 0.04 0.03
0.05 0.01 0.02 0.05 0.07 0.07 0.04 0.03 0.04 0.04 0.03 0.02 0.02 0.02 0.03 0.03 0.02 0.02 0.02 0.02 0.02 0.03 0.04 0.06 0.05 0.05 0.05 0.04 0.03 0.02 0.02 0.01 0.01 0.01 0.01 0.01 0.01 0.01 0.01 0.02 0.02 0.03 0.03
0.08 0.02 0.02 0.04 0.05 0.05 0.04 0.03 0.03 0.05 0.04 0.03 0.02 0.02 0.03 0.02 0.01 0.01 0.01 0.01 0.01 0.02 0.03 0.04 0.05 0.05 0.05 0.04 0.04 0.03 0.02 0.01 0.01 0.01 0.01 0.01 0.01 0.01 0.01 0.01 0.01 0.02 0.03
0.07 0.04 0.03 0.03 0.05 0.05 0.05 0.03 0.03 0.03 0.04 0.04 0.03 0.03 0.02 0.02 0.01 0.01 0.01 0.01 0.02 0.02 0.02 0.03 0.04 0.04 0.05 0.05 0.03 0.02 0.02 0.01 0.01 0.01 0.01 0.01 0.01 0.01 0.01 0.01 0.01 0.01 0.02
0.06 0.05 0.03 0.04 0.05 0.06 0.05 0.03 0.02 0.02 0.03 0.03 0.03 0.03 0.02 0.01 0.01 0.01 0.02 0.01 0.01 0.01 0.02 0.02 0.02 0.03 0.04 0.05 0.03 0.03 0.02 0.02 0.01 0.01 0.01 0.01 0.01 0.01 0.01 0.01 0.01 0.01 0.01
0.05 0.05 0.03 0.04 0.05 0.05 0.04 0.03 0.02 0.02 0.03 0.03 0.03 0.03 0.02 0.01 0.01 0.01 0.01 0.01 0.01 0.01 0.01 0.02 0.02 0.02 0.03 0.03 0.02 0.02 0.02 0.02 0.01 0.02 0.01 0.01 0.01 0.01 0.01 0.01 0.01 0.01 0.01
0.06 0.04 0.03 0.04 0.05 0.05 0.04 0.04 0.04 0.03 0.04 0.04 0.04 0.04 0.03 0.02 0.01 0.01 0.01 0.01 0.01 0.01 0.01 0.01 0.02 0.01 0.02 0.02 0.02 0.02 0.02 0.02 0.02 0.02 0.01 0.01 0.01 0.01 0.02 0.01 0.01 0.01 0.01
0.06 0.04 0.03 0.04 0.05 0.05 0.04 0.04 0.05 0.05 0.05 0.04 0.05 0.05 0.05 0.05 0.03 0.02 0.01 0.01 0.01 0.01 0.01 0.01 0.01 0.01 0.01 0.02 0.02 0.02 0.02 0.02 0.03 0.02 0.02 0.01 0.01 0.01 0.02 0.02 0.02 0.01 0.01
0.07 0.03 0.03 0.04 0.05 0.05 0.04 0.04 0.04 0.05 0.05 0.04 0.04 0.05 0.04 0.04 0.04 0.03 0.02 0.01 0.01 0.01 0.01 0.01 0.01 0.01 0.01 0.01 0.02 0.02 0.02 0.02 0.02 0.03 0.03 0.02 0.02 0.02 0.02 0.02 0.02 0.02 0.02
0.07 0.04 0.03 0.03 0.04 0.05 0.05 0.05 0.05 0.05 0.05 0.05 0.05 0.05 0.04 0.03 0.03 0.03 0.02 0.01 0.01 0.01 0.01 0.01 0.01 0.01 0.02 0.02 0.01 0.02 0.02 0.02 0.02 0.03 0.03 0.02 0.02 0.02 0.02 0.02 0.02 0.02 0.02
0.07 0.04 0.03 0.02 0.03 0.03 0.04 0.05 0.05 0.05 0.06 0.05 0.05 0.05 0.05 0.04 0.03 0.03 0.02 0.02 0.01 0.01 0.01 0.01 0.01 0.01 0.01 0.02 0.01 0.01 0.01 0.02 0.02 0.03 0.03 0.03 0.02 0.02 0.03 0.03 0.03 0.03 0.02
0.07 0.05 0.03 0.02 0.03 0.02 0.02 0.04 0.05 0.05 0.05 0.06 0.05 0.04 0.04 0.04 0.04 0.03 0.02 0.02 0.02 0.01 0.01 0.01 0.01 0.01 0.01 0.01 0.01 0.01 0.01 0.01 0.02 0.02 0.03 0.03 0.02 0.02 0.03 0.03 0.04 0.04 0.03
0.07 0.05 0.04 0.02 0.02 0.02 0.02 0.03 0.04 0.04 0.04 0.05 0.05 0.05 0.04 0.03 0.03 0.03 0.03 0.02 0.02 0.01 0.01 0.01 0.01 0.01 0.01 0.01 0.01 0.01 0.01 0.01 0.02 0.02 0.03 0.03 0.03 0.03 0.03 0.03 0.04 0.04 0.03
0.06 0.05 0.04 0.03 0.02 0.02 0.02 0.02 0.03 0.04 0.04 0.04 0.04 0.05 0.05 0.04 0.03 0.03 0.03 0.03 0.02 0.01 0.01 0.00 0.00 0.00 0.00 0.01 0.01 0.01 0.01 0.01 0.01 0.02 0.02 0.03 0.03 0.03 0.03 0.02 0.03 0.03 0.02
0.06 0.04 0.04 0.03 0.02 0.02 0.02 0.02 0.02 0.02 0.03 0.04 0.04 0.05 0.05 0.05 0.04 0.04 0.03 0.03 0.03 0.02 0.01 0.00 0.00 0.00 0.00 0.00 0.01 0.01 0.01 0.01 0.01 0.01 0.02 0.02 0.03 0.03 0.03 0.03 0.03 0.03 0.02
0.07 0.05 0.03 0.03 0.02 0.02 0.02 0.02 0.02 0.02 0.02 0.03 0.03 0.04 0.05 0.05 0.05 0.05 0.04 0.04 0.03 0.04 0.03 0.01 0.00 0.00 0.00 0.00 0.01 0.01 0.00 0.01 0.01 0.01 0.01 0.02 0.02 0.03 0.03 0.03 0.03 0.03 0.02
0.07 0.07 0.05 0.03 0.03 0.02 0.02 0.02 0.02 0.02 0.02 0.02 0.03 0.03 0.04 0.05 0.06 0.05 0.05 0.05 0.04 0.04 0.04 0.03 0.02 0.01 0.01 0.01 0.01 0.01 0.01 0.01 0.01 0.01 0.01 0.01 0.02 0.02 0.03 0.03 0.04 0.04 0.03
0.08 0.08 0.06 0.04 0.04 0.03 0.03 0.02 0.02 0.01 0.01 0.02 0.02 0.03 0.03 0.03 0.04 0.04 0.04 0.04 0.04 0.04 0.04 0.04 0.03 0.02 0.02 0.02 0.02 0.02 0.01 0.01 0.01 0.01 0.01 0.01 0.01 0.02 0.03 0.04 0.04 0.04 0.04
0.08 0.08 0.07 0.06 0.04 0.03 0.03 0.02 0.02 0.01 0.01 0.02 0.02 0.02 0.03 0.03 0.04 0.04 0.04 0.04 0.04 0.04 0.04 0.05 0.04 0.03 0.03 0.03 0.02 0.02 0.01 0.01 0.01 0.01 0.01 0.01 0.01 0.02 0.03 0.04 0.04 0.04 0.04
0.05 0.06 0.05 0.05 0.04 0.03 0.03 0.02 0.02 0.01 0.01 0.01 0.02 0.02 0.02 0.02 0.03 0.03 0.04 0.04 0.04 0.04 0.05 0.06 0.06 0.05 0.05 0.03 0.03 0.02 0.02 0.01 0.01 0.01 0.01 0.01 0.01 0.01 0.02 0.04 0.05 0.04 0.04
0.04 0.04 0.05 0.04 0.03 0.03 0.02 0.02 0.02 0.02 0.02 0.01 0.01 0.02 0.02 0.02 0.03 0.03 0.04 0.03 0.04 0.04 0.05 0.06 0.06 0.05 0.04 0.04 0.03 0.02 0.02 0.02 0.02 0.02 0.02 0.01 0.01 0.01 0.02 0.03 0.04 0.04 0.04
0.04 0.03 0.04 0.04 0.03 0.02 0.02 0.03 0.03 0.03 0.02 0.02 0.02 0.02 0.02 0.02 0.03 0.04 0.04 0.04 0.04 0.04 0.05 0.06 0.06 0.05 0.04 0.03 0.03 0.03 0.03 0.04 0.03 0.02 0.02 0.02 0.02 0.02 0.01 0.01 0.03 0.04 0.03
0.03 0.03 0.03 0.03 0.04 0.03 0.03 0.03 0.03 0.04 0.04 0.03 0.03 0.03 0.03 0.03 0.03 0.03 0.04 0.05 0.05 0.05 0.05 0.05 0.05 0.04 0.04 0.03 0.03 0.03 0.03 0.04 0.03 0.02 0.02 0.03 0.03 0.03 0.02 0.02 0.03 0.03 0.03
0.03 0.03 0.03 0.03 0.03 0.03 0.03 0.03 0.03 0.03 0.03 0.04 0.03 0.03 0.03 0.03 0.04 0.04 0.04 0.05 0.05 0.04 0.04 0.04 0.03 0.03 0.03 0.03 0.05 0.05 0.05 0.05 0.05 0.04 0.03 0.04 0.04 0.04 0.03 0.03 0.03 0.04 0.03
0.03 0.03 0.03 0.03 0.02 0.02 0.03 0.03 0.03 0.03 0.03 0.03 0.03 0.04 0.04 0.04 0.04 0.05 0.04 0.04 0.04 0.04 0.04 0.03 0.03 0.03 0.03 0.04 0.06 0.07 0.07 0.07 0.06 0.05 0.04 0.04 0.03 0.04 0.04 0.04 0.04 0.04 0.04
0.04 0.04 0.04 0.04 0.03 0.02 0.03 0.03 0.03 0.03 0.04 0.03 0.03 0.03 0.05 0.05 0.06 0.06 0.05 0.04 0.04 0.03 0.03 0.03 0.04 0.04 0.04 0.04 0.05 0.05 0.06 0.06 0.06 0.05 0.05 0.05 0.04 0.04 0.05 0.05 0.05 0.05 0.05
MSLP
1020.18 1020.65 1021.11 1021.54 1021.97 1022.37 1022.76 1023.11 1023.42 1023.70 1023.95 1024.18 1024.41 1024.65 1024.90 1025.17 1025.45 1025.73 1026.00 1026.24 1026.45 1026.64 1026.82 1027.00 1027.20 1027.42 1027.67 1027.94 1028.21 1028.47 1028.70 1028.89 1029.03 1029.15 1029.26 1029.38 1029.52 1029.69 1029.90 1030.12 1030.34 1030.55 1030.73
1020.25 1020.73 1021.19 1021.64 1022.08 1022.51 1022.93 1023.33 1023.70 1024.05 1024.38 1024.69 1024.99 1025.29 1025.57 1025.85 1026.10 1026.33 1026.54 1026.71 1026.87 1027.01 1027.17 1027.34 1027.54 1027.79 1028.07 1028.36 1028.66 1028.94 1029.18 1029.38 1029.55 1029.68 1029.81 1029.94 1030.09 1030.27 1030.47 1030.69 1030.90 1031.11 1031.29
1020.32 1020.81 1021.30 1021.77 1022.23 1022.69 1023.13 1023.57 1024.01 1024.43 1024.84 1025.23 1025.61 1025.96 1026.28 1026.57 1026.80 1026.99 1027.13 1027.23 1027.32 1027.40 1027.51 1027.65 1027.85 1028.10 1028.39 1028.70 1029.02 1029.32 1029.58 1029.81 1030.00 1030.17 1030.32 1030.48 1030.65 1030.84 1031.04 1031.25 1031.46 1031.65 1031.82
1020.38 1020.90 1021.41 1021.92 1022.40 1022.89 1023.36 1023.84 1024.32 1024.80 1025.27 1025.74 1026.19 1026.60 1026.97 1027.27 1027.50 1027.65 1027.74 1027.78 1027.80 1027.83 1027.88 1027.99 1028.16 1028.39 1028.67 1028.99 1029.31 1029.62 1029.91 1030.16 1030.39 1030.59 1030.78 1030.97 1031.17 1031.37 1031.58 1031.78 1031.98 1032.15 1032.30
1020.42 1020.98 1021.53 1022.07 1022.58 1023.09 1023.58 1024.08 1024.59 1025.10 1025.63 1026.16 1026.67 1027.14 1027.55 1027.89 1028.13 1028.27 1028.34 1028.34 1028.31 1028.29 1028.30 1028.37 1028.50 1028.70 1028.96 1029.25 1029.56 1029.87 1030.17 1030.45 1030.70 1030.94 1031.17 1031.40 1031.62 1031.84 1032.05 1032.24 1032.41 1032.56 1032.69
1020.41 1021.01 1021.61 1022.18 1022.72 1023.24 1023.75 1024.25 1024.76 1025.29 1025.85 1026.41 1026.97 1027.50 1027.96 1028.34 1028.62 1028.78 1028.85 1028.85 1028.81 1028.77 1028.75 1028.79 1028.89 1029.05 1029.27 1029.53 1029.82 1030.11 1030.39 1030.67 1030.94 1031.21 1031.47 1031.72 1031.97 1032.20 1032.41 1032.59 1032.74 1032.87 1032.97
1020.34 1020.98 1021.61 1022.21 1022.77 1023.30 1023.80 1024.30 1024.80 1025.33 1025.89 1026.48 1027.07 1027.64 1028.16 1028.59 1028.92 1029.13 1029.24 1029.27 1029.25 1029.22 1029.20 1029.23 1029.30 1029.44 1029.62 1029.84 1030.08 1030.33 1030.60 1030.86 1031.13 1031.40 1031.68 1031.95 1032.21 1032.45 1032.65 1032.82 1032.95 1033.05 1033.13
1020.19 1020.85 1021.50 1022.12 1022.70 1023.23 1023.72 1024.20 1024.69 1025.20 1025.76 1026.35 1026.97 1027.57 1028.13 1028.62 1029.01 1029.28 1029.46 1029.55 1029.58 1029.59 1029.60 1029.63 1029.71 1029.82 1029.97 1030.15 1030.35 1030.56 1030.78 1031.02 1031.27 1031.54 1031.81 1032.09 1032.35 1032.59 1032.79 1032.95 1033.06 1033.14 1033.19
1019.95 1020.61 1021.28 1021.91 1022.49 1023.02 1023.50 1023.97 1024.43 1024.93 1025.48 1026.07 1026.69 1027.32 1027.91 1028.45 1028.89 1029.24 1029.49 1029.65 1029.75 1029.82 1029.88 1029.95 1030.04 1030.15 1030.28 1030.43 1030.59 1030.76 1030.95 1031.15 1031.38 1031.62 1031.89 1032.15 1032.41 1032.64 1032.84 1032.99 1033.09 1033.15 1033.18
1019.64 1020.30 1020.96 1021.59 1022.17 1022.69 1023.17 1023.63 1024.08 1024.57 1025.10 1025.69 1026.31 1026.95 1027.57 1028.14 1028.63 1029.03 1029.35 1029.58 1029.76 1029.89 1030.01 1030.13 1030.24 1030.37 1030.50 1030.63 1030.77 1030.91 1031.06 1031.24 1031.44 1031.66 1031.90 1032.16 1032.41 1032.63 1032.83 1032.97 1033.07 1033.12 1033.14
1019.28 1019.93 1020.59 1021.21 1021.78 1022.30 1022.78 1023.23 1023.68 1024.17 1024.70 1025.28 1025.90 1026.54 1027.17 1027.76 1028.28 1028.72 1029.08 1029.37 1029.61 1029.80 1029.97 1030.14 1030.29 1030.45 1030.59 1030.73 1030.85 1030.98 1031.12 1031.27 1031.45 1031.65 1031.88 1032.12 1032.36 1032.58 1032.77 1032.92 1033.02 1033.08 1033.10
1018.89 1019.54 1020.18 1020.80 1021.36 1021.88 1022.36 1022.82 1023.29 1023.78 1024.31 1024.89 1025.51 1026.15 1026.77 1027.37 1027.89 1028.35 1028.74 1029.06 1029.34 1029.58 1029.79 1030.00 1030.19 1030.37 1030.54 1030.69 1030.83 1030.96 1031.09 1031.24 1031.41 1031.60 1031.81 1032.05 1032.28 1032.50 1032.69 1032.84 1032.95 1033.02 1033.06
1018.48 1019.13 1019.77 1020.38 1020.94 1021.47 1021.95 1022.43 1022.90 1023.41 1023.96 1024.55 1025.17 1025.80 1026.42 1027.00 1027.52 1027.98 1028.37 1028.71 1029.00 1029.26 1029.51 1029.74 1029.96 1030.17 1030.37 1030.54 1030.70 1030.85 1031.00 1031.15 1031.32 1031.51 1031.72 1031.94 1032.17 1032.38 1032.58 1032.74 1032.86 1032.95 1033.01
1018.04 1018.71 1019.36 1019.97 1020.53 1021.06 1021.56 1022.05 1022.54 1023.07 1023.63 1024.23 1024.85 1025.48 1026.09 1026.66 1027.17 1027.62 1028.01 1028.34 1028.64 1028.91 1029.17 1029.42 1029.66 1029.90 1030.12 1030.32 1030.51 1030.68 1030.85 1031.01 1031.19 1031.39 1031.59 1031.81 1032.03 1032.24 1032.44 1032.61 1032.74 1032.85 1032.93
1017.54 1018.26 1018.93 1019.55 1020.13 1020.66 1021.16 1021.66 1022.17 1022.72 1023.29 1023.90 1024.53 1025.15 1025.76 1026.32 1026.83 1027.27 1027.65 1027.99 1028.29 1028.56 1028.83 1029.09 1029.35 1029.60 1029.84 1030.07 1030.29 1030.49 1030.67 1030.86 1031.05 1031.25 1031.45 1031.66 1031.87 1032.08 1032.26 1032.44 1032.58 1032.71 1032.81
1016.97 1017.74 1018.45 1019.10 1019.69 1020.23 1020.75 1021.26 1021.78 1022.33 1022.91 1023.52 1024.15 1024.78 1025.38 1025.95 1026.46 1026.91 1027.30 1027.64 1027.95 1028.24 1028.52 1028.79 1029.06 1029.33 1029.59 1029.83 1030.07 1030.29 1030.50 1030.70 1030.90 1031.10 1031.30 1031.50 1031.70 1031.89 1032.07 1032.23 1032.38 1032.52 1032.64
1016.30 1017.14 1017.90 1018.59 1019.20 1019.76 1020.29 1020.80 1021.32 1021.87 1022.45 1023.05 1023.68 1024.31 1024.92 1025.49 1026.02 1026.49 1026.91 1027.28 1027.62 1027.93 1028.23 1028.52 1028.80 1029.09 1029.36 1029.62 1029.88 1030.11 1030.34 1030.55 1030.76 1030.96 1031.15 1031.34 1031.52 1031.69 1031.85 1032.00 1032.15 1032.29 1032.42
1015.54 1016.44 1017.26 1017.99 1018.64 1019.22 1019.76 1020.28 1020.80 1021.34 1021.91 1022.50 1023.12 1023.74 1024.36 1024.94 1025.49 1025.99 1026.45 1026.86 1027.24 1027.59 1027.92 1028.24 1028.55 1028.85 1029.14 1029.42 1029.68 1029.93 1030.17 1030.39 1030.60 1030.80 1030.98 1031.16 1031.32 1031.47 1031.61 1031.76 1031.90 1032.04 1032.18
1014.71 1015.66 1016.53 1017.30 1018.00 1018.61 1019.17 1019.70 1020.22 1020.75 1021.30 1021.88 1022.48 1023.09 1023.69 1024.29 1024.85 1025.39 1025.89 1026.35 1026.77 1027.17 1027.55 1027.90 1028.24 1028.57 1028.88 1029.17 1029.45 1029.71 1029.96 1030.19 1030.40 1030.60 1030.78 1030.95 1031.10 1031.24 1031.38 1031.51 1031.64 1031.79 1031.94
1013.86 1014.82 1015.72 1016.54 1017.27 1017.93 1018.53 1019.08 1019.60 1020.13 1020.66 1021.21 1021.79 1022.37 1022.96 1023.55 1024.13 1024.68 1025.21 1025.71 1026.19 1026.64 1027.06 1027.45 1027.83 1028.18 1028.51 1028.82 1029.12 1029.40 1029.66 1029.90 1030.13 1030.34 1030.53 1030.70 1030.86 1031.00 1031.13 1031.26 1031.40 1031.55 1031.71
1013.02 1013.96 1014.86 1015.71 1016.48 1017.18 1017.82 1018.41 1018.95 1019.49 1020.01 1020.54 1021.08 1021.64 1022.20 1022.76 1023.33 1023.89 1024.43 1024.96 1025.47 1025.96 1026.42 1026.85 1027.26 1027.65 1028.01 1028.34 1028.66 1028.96 1029.24 1029.51 1029.76 1029.99 1030.20 1030.40 1030.57 1030.73 1030.88 1031.02 1031.17 1031.33 1031.50
1012.26 1013.13 1013.99 1014.84 1015.63 1016.37 1017.06 1017.69 1018.27 1018.83 1019.36 1019.87 1020.39 1020.91 1021.43 1021.96 1022.50 1023.04 1023.58 1024.11 1024.64 1025.15 1025.64 1026.11 1026.55 1026.96 1027.35 1027.71 1028.06 1028.39 1028.70 1029.00 1029.28 1029.55 1029.80 1030.03 1030.24 1030.43 1030.61 1030.78 1030.96 1031.13 1031.33
1011.61 1012.35 1013.14 1013.94 1014.74 1015.51 1016.23 1016.91 1017.54 1018.13 1018.68 1019.20 1019.70 1020.19 1020.68 1021.17 1021.67 1022.17 1022.69 1023.21 1023.73 1024.25 1024.75 1025.24 1025.71 1026.15 1026.57 1026.97 1027.34 1027.70 1028.05 1028.39 1028.72 1029.03 1029.33 1029.61 1029.87 1030.11 1030.33 1030.54 1030.74 1030.95 1031.17
1011.11 1011.67 1012.33 1013.05 1013.81 1014.57 1015.32 1016.04 1016.72 1017.35 1017.94 1018.48 1018.99 1019.46 1019.93 1020.38 1020.84 1021.31 1021.79 1022.29 1022.79 1023.30 1023.81 1024.32 1024.80 1025.27 1025.72 1026.15 1026.57 1026.97 1027.36 1027.74 1028.11 1028.47 1028.82 1029.15 1029.46 1029.76 1030.03 1030.28 1030.53 1030.77 1031.01
1010.75 1011.10 1011.58 1012.18 1012.85 1013.58 1014.32 1015.06 1015.78 1016.46 1017.09 1017.67 1018.20 1018.69 1019.14 1019.58 1020.02 1020.46 1020.91 1021.38 1021.87 1022.38 1022.89 1023.40 1023.91 1024.40 1024.88 1025.34 1025.79 1026.23 1026.66 1027.09 1027.50 1027.91 1028.30 1028.68 1029.05 1029.39 1029.71 1030.01 1030.29 1030.57 1030.83
1010.54 1010.65 1010.93 1011.35 1011.90 1012.54 1013.25 1013.98 1014.72 1015.43 1016.11 1016.73 1017.29 1017.81 1018.28 1018.73 1019.16 1019.59 1020.04 1020.50 1020.98 1021.49 1022.01 1022.53 1023.06 1023.58 1024.09 1024.59 1025.07 1025.55 1026.01 1026.47 1026.92 1027.37 1027.80 1028.22 1028.62 1029.00 1029.36 1029.70 1030.02 1030.33 1030.62
Thickness
5617 5618 5619 5620 5621 5622 5623 5625 5626 5627 5628 5629 5629 5630 5630 5630 5630 5630 5630 5631 5632 5632 5632 5632 5632 5631 5631 5629 5629 5628 5628 5628 5628 5628 5627 5627 5626 5626 5626 5625 5625 5624 5624
5608 5609 5610 5612 5613 5614 5615 5617 5618 5619 5619 5620 5621 5622 5622 5622 5622 5623 5622 5623 5624 5624 5624 5624 5624 5624 5623 5622 5621 5620 5620 5620 5620 5620 5619 5619 5618 5618 5618 5618 5617 5617 5617
5598 5600 5602 5603 5604 5605 5607 5608 5610 5611 5611 5612 5613 5613 5614 5614 5615 5615 5615 5615 5615 5616 5616 5617 5616 5616 5616 5615 5614 5613 5612 5612 5613 5612 5611 5611 5610 5610 5610 5610 5609 5609 5609
5589 5591 5592 5593 5595 5597 5598 5600 5601 5602 5602 5602 5603 5605 5605 5606 5607 5607 5607 5607 5608 5608 5608 5608 5608 5608 5608 5607 5606 5606 5605 5605 5605 5605 5604 5603 5602 5602 5602 5601 5601 5601 5601
5579 5581 5582 5583 5586 5587 5589 5591 5592 5593 5592 5593 5594 5595 5596 5597 5599 5599 5599 5599 5600 5599 5599 5599 5599 5598 5599 5599 5598 5598 5597 5596 5596 5596 5596 5595 5595 5594 5594 5594 5593 5593 5593
5569 5571 5572 5573 5576 5577 5579 5581 5582 5583 5583 5584 5585 5584 5585 5587 5589 5590 5590 5591 5591 5591 5590 5590 5589 5589 5589 5589 5589 5590 5589 5588 5588 5587 5587 5587 5587 5587 5586 5586 5585 5585 5585
5558 5560 5561 5564 5565 5567 5568 5570 5571 5572 5573 5574 5574 5572 5573 5576 5577 5578 5580 5580 5581 5580 5580 5580 5580 5580 5580 5580 5580 5580 5580 5580 5580 5579 5579 5579 5579 5579 5578 5578 5577 5577 5577
5548 5550 5552 5554 5555 5556 5558 5560 5561 5561 5562 5564 5564 5562 5561 5562 5564 5566 5568 5568 5569 5569 5569 5569 5570 5570 5570 5570 5570 5570 5570 5570 5570 5570 5571 5571 5570 5570 5570 5570 5569 5569 5569
5537 5540 5542 5544 5545 5547 5548 5549 5550 5552 5552 5553 5554 5555 5553 5553 5551 5553 5555 5557 5558 5558 5558 5558 5559 5560 5560 5560 5560 5560 5560 5561 5561 5561 5562 5562 5561 5561 5561 5561 5561 5561 5560
5527 5530 5532 5534 5535 5537 5538 5539 5540 5542 5543 5543 5543 5545 5546 5546 5543 5541 5542 5544 5546 5547 5547 5548 5548 5549 5550 5550 5549 5549 5550 5550 5551 5551 5552 5553 5553 5553 5553 5553 5552 5552 5552
5516 5519 5521 5523 5525 5526 5527 5529 5530 5531 5533 5534 5533 5534 5535 5536 5537 5535 5533 5532 5533 5535 5536 5537 5538 5538 5539 5539 5539 5539 5539 5540 5541 5542 5542 5543 5543 5543 5544 5543 5543 5543 5543
5505 5508 5510 5513 5515 5516 5517 5519 5520 5521 5522 5523 5524 5524 5525 5526 5526 5526 5525 5523 5522 5523 5525 5527 5527 5528 5528 5528 5528 5529 5529 5529 5530 5531 5532 5532 5533 5533 5534 5534 5534 5534 5534
5495 5498 5500 5503 5504 5506 5507 5508 5509 5509 5511 5512 5513 5514 5515 5517 5518 5518 5516 5514 5513 5512 5514 5516 5517 5518 5518 5518 5518 5518 5517 5518 5519 5520 5521 5521 5522 5523 5523 5523 5524 5524 5523
5486 5488 5490 5492 5494 5495 5496 5497 5497 5498 5500 5501 5502 5503 5504 5505 5506 5507 5507 5504 5502 5501 5503 5505 5507 5508 5507 5507 5507 5506 5507 5507 5508 5509 5510 5510 5511 5512 5512 5513 5513 5513 5512
5477 5478 5479 5481 5483 5484 5485 5486 5486 5487 5488 5490 5491 5492 5493 5494 5495 5495 5496 5496 5494 5493 5494 5495 5496 5497 5496 5496 5496 5496 5496 5497 5497 5498 5499 5499 5500 5500 5501 5501 5501 5501 5501
5467 5467 5468 5469 5471 5473 5473 5474 5475 5476 5477 5479 5480 5481 5482 5483 5484 5484 5485 5485 5485 5485 5485 5487 5486 5486 5485 5485 5485 5485 5486 5486 5487 5488 5488 5488 5489 5489 5489 5489 5490 5490 5489
5456 5457 5457 5459 5460 5461 5462 5463 5464 5465 5467 5468 5469 5471 5471 5472 5473 5473 5473 5473 5473 5473 5473 5474 5474 5475 5474 5474 5474 5474 5474 5475 5476 5476 5477 5477 5477 5477 5477 5478 5478 5478 5478
5445 5446 5446 5448 5449 5450 5452 5453 5454 5455 5457 5458 5459 5459 5460 5461 5462 5462 5462 5462 5462 5462 5462 5461 5461 5462 5462 5463 5463 5463 5463 5464 5465 5465 5465 5466 5466 5466 5466 5466 5466 5465 5465
5433 5434 5435 5437 5438 5439 5441 5442 5443 5444 5446 5448 5448 5449 5449 5449 5450 5450 5451 5450 5450 5450 5449 5449 5449 5449 5449 5450 5450 5450 5450 5451 5452 5453 5453 5454 5454 5454 5455 5454 5454 5454 5454
5421 5422 5424 5425 5426 5428 5430 5431 5432 5434 5435 5436 5437 5438 5438 5439 5439 5439 5439 5439 5438 5437 5436 5436 5436 5435 5436 5436 5437 5436 5436 5437 5439 5440 5441 5442 5442 5442 5443 5443 5443 5443 5443
5410 5411 5412 5414 5415 5416 5419 5420 5422 5423 5424 5425 5426 5427 5428 5428 5429 5428 5428 5428 5427 5426 5424 5423 5424 5423 5423 5423 5424 5424 5424 5424 5425 5427 5428 5429 5430 5431 5430 5430 5430 5431 5431
5398 5400 5402 5403 5404 5406 5408 5410 5411 5412 5413 5413 5414 5415 5416 5416 5417 5416 5416 5416 5416 5415 5414 5412 5413 5414 5415 5414 5413 5412 5411 5410 5412 5415 5413 5415 5417 5417 5418 5418 5418 5419 5419
5387 5389 5390 5391 5392 5394 5396 5398 5399 5400 5401 5402 5403 5403 5404 5404 5404 5403 5403 5404 5404 5404 5404 5403 5403 5404 5404 5405 5403 5401 5400 5400 5401 5401 5399 5402 5403 5404 5405 5405 5405 5406 5406
5377 5378 5379 5380 5381 5383 5384 5386 5387 5388 5389 5390 5392 5392 5392 5391 5391 5391 5391 5391 5391 5392 5392 5392 5393 5394 5393 5392 5391 5390 5389 5387 5388 5387 5387 5387 5389 5390 5392 5391 5391 5392 5392
5367 5367 5368 5369 5369 5371 5372 5374 5375 5376 5377 5378 5380 5380 5380 5380 5380 5379 5378 5378 5379 5379 5379 5379 5379 5380 5380 5380 5379 5376 5374 5373 5374 5375 5374 5373 5375 5375 5377 5378 5377 5377 5377
5357 5357 5358 5358 5359 5360 5361 5362 5363 5364 5365 5367 5368 5368 5369 5369 5368 5367 5366 5366 5366 5367 5366 5366 5366 5366 5366 5366 5365 5364 5363 5361 5361 5362 5362 5360 5360 5359 5360 5364 5363 5363 5363